Tracking 35030 objects as of 11-Aug-2026
HD Live streaming from Space Station
objects crossing your sky now

FREGAT DEB


10-day predictions


NORAD ID: 45948
Int'l Code: 2011-037FD
Launch date: July 18, 2011
Source: Commonwealth of Independent States (former USSR) (CIS)
Launch site: TYURATAM MISSILE AND SPACE COMPLEX (TTMTR)

Note: This is SATELLITE DEBRIS
Your satellite tracking list
Your tracking list is empty




NASA's NSSDC Master Catalog

Two Line Element Set (TLE):
1 45948U 11037FD  23195.88900483 -.00001777  00000-0 -20382-1 0  9992
2 45948  51.2814  34.2977 1740225 213.1647 134.7168 10.02898800108522
Source of the keplerian elements: AFSPC